EW5168 Weather Reports


Display with metric or nautical units.
time (UTC)temp
F
wind
direction
speed
MPH
gust
MPH
rain 1hr
in
rain 24hr
in
rain mn
in
humidity
%
barometer
mb
20260505084055 70 227 6.0 15.0 0.00 0.00 0.00 1 1005.7
20260505083555 70 218 6.0 15.0 0.00 0.00 0.00 1 1005.7
20260505083055 70 197 6.0 15.0 0.00 0.00 0.00 1 1005.8
20260505082555 70 168 6.0 15.0 0.00 0.00 0.00 1 1005.8
20260505082055 70 171 6.0 15.0 0.00 0.00 0.00 1 1005.8
20260505081556 70 177 6.0 15.0 0.00 0.00 0.00 1 1005.9
20260505081055 71 232 6.0 16.0 0.00 0.00 0.00 1 1006.1
20260505080555 71 240 6.0 16.0 0.00 0.00 0.00 1 1006.2
20260505080055 71 161 5.0 13.0 0.00 0.00 0.00 1 1006.3
20260505075555 71 195 5.0 14.0 0.00 0.00 0.00 1 1006.4
20260505075053 71 173 5.0 14.0 0.00 0.00 0.00 1 1006.5
20260505074553 71 187 6.0 15.0 0.00 0.00 0.00 1 1006.7
20260505074053 71 203 6.0 15.0 0.00 0.00 0.00 1 1006.7
20260505073553 71 194 6.0 16.0 0.00 0.00 0.00 1 1006.9
20260505073053 71 137 5.0 16.0 0.00 0.00 0.00 1 1007.0
20260505072557 71 177 5.0 13.0 0.00 0.00 0.00 1 1007.0
20260505072553 71 150 5.0 13.0 0.00 0.00 0.00 1 1006.9
20260505071553 71 159 5.0 12.0 0.00 0.00 0.00 1 1007.1
20260505071053 71 183 4.0 12.0 0.00 0.00 0.00 1 1007.2
20260505070557 71 165 5.0 12.0 0.00 0.00 0.00 1 1007.2
20260505070552 71 161 5.0 12.0 0.00 0.00 0.00 1 1007.2
20260505065555 71 194 5.0 14.0 0.00 0.00 0.00 1 1007.3
20260505065551 71 198 5.0 14.0 0.00 0.00 0.00 1 1007.4
20260505064551 71 151 5.0 12.0 0.00 0.00 0.00 1 1007.3
20260505064050 71 157 5.0 15.0 0.00 0.00 0.00 1 1007.3
20260505063551 71 155 5.0 15.0 0.00 0.00 0.00 1 1007.4
20260505063051 71 187 6.0 16.0 0.00 0.00 0.00 1 1007.4
20260505062551 71 157 5.0 16.0 0.00 0.00 0.00 1 1007.6
20260505062051 71 164 5.0 12.0 0.00 0.00 0.00 1 1007.6
20260505061551 71 242 4.0 12.0 0.00 0.00 0.00 1 1007.7
20260505061051 71 171 5.0 11.0 0.00 0.00 0.00 1 1007.7
20260505060551 71 174 5.0 14.0 0.00 0.00 0.00 1 1007.6
20260505060055 71 220 5.0 12.0 0.00 0.00 0.00 1 1007.8
20260505060050 71 200 5.0 14.0 0.00 0.00 0.00 1 1007.6
20260505055653 71 222 5.0 12.0 0.00 0.00 0.00 1 1007.7
20260505054550 71 133 5.0 11.0 0.00 0.00 0.00 1 1007.8
20260505054047 71 207 5.0 18.0 0.00 0.00 0.00 1 1007.8
20260505053546 71 198 4.0 18.0 0.00 0.00 0.00 1 1007.9
20260505053050 71 185 4.0 11.0 0.00 0.00 0.00 1 1007.8
20260505053046 71 238 4.0 11.0 0.00 0.00 0.00 1 1007.8
20260505052651 71 183 4.0 11.0 0.00 0.00 0.00 1 1007.7
20260505051548 71 184 4.0 9.0 0.00 0.00 0.00 1 1007.8
20260505051544 71 203 4.0 11.0 0.00 0.00 0.00 1 1007.8
20260505050542 72 205 4.0 11.0 0.00 0.00 0.00 1 1007.9
20260505041544 73 153 5.0 14.0 0.00 0.00 0.00 1 1007.8
20260505041540 73 178 5.0 15.0 0.00 0.00 0.00 1 1007.7
20260505040645 73 202 5.0 14.0 0.00 0.00 0.00 3 1007.7
20260505040542 73 164 5.0 14.0 0.00 0.00 0.00 1 1007.6
20260505040538 73 164 5.0 14.0 0.00 0.00 0.00 1 1007.6
20260505035038 73 91 5.0 13.0 0.00 0.00 0.00 6 1007.7
20260505034537 73 245 5.0 14.0 0.00 0.00 0.00 9 1007.7
20260505034035 73 158 4.0 14.0 0.00 0.00 0.00 12 1007.7
20260505033536 74 156 4.0 10.0 0.00 0.00 0.00 14 1007.8
20260505033532 74 220 5.0 10.0 0.00 0.00 0.00 16 1007.7
20260505032532 74 167 5.0 13.0 0.00 0.00 0.00 18 1007.7
20260505032031 74 156 5.0 13.0 0.00 0.00 0.00 19 1007.7
20260505031531 74 157 5.0 16.0 0.00 0.00 0.00 20 1007.8
20260505031034 74 185 5.0 14.0 0.00 0.00 0.00 22 1007.7
20260505031030 74 205 6.0 16.0 0.00 0.00 0.00 21 1007.8
20260505030028 74 186 5.0 12.0 0.00 0.00 0.00 23 1007.6
20260505025532 74 190 5.0 15.0 0.00 0.00 0.00 25 1007.6
20260505025528 74 167 6.0 15.0 0.00 0.00 0.00 24 1007.6
20260505024526 75 209 5.0 11.0 0.00 0.00 0.00 26 1007.6
20260505024026 75 159 5.0 11.0 0.00 0.00 0.00 26 1007.6
20260505023526 75 183 4.0 10.0 0.00 0.00 0.00 27 1007.4
20260505023025 75 159 4.0 10.0 0.00 0.00 0.00 28 1007.4
20260505022523 75 208 5.0 12.0 0.00 0.00 0.00 29 1007.4
20260505022024 75 163 4.0 12.0 0.00 0.00 0.00 29 1007.3
20260505021523 75 180 4.0 11.0 0.00 0.00 0.00 29 1007.2
20260505021027 75 161 5.0 12.0 0.00 0.00 0.00 30 1007.2
20260505021022 75 161 5.0 11.0 0.00 0.00 0.00 30 1007.3
20260505020021 75 153 5.0 12.0 0.00 0.00 0.00 30 1007.2
20260505015525 76 163 4.0 12.0 0.00 0.00 0.00 32 1007.0
20260505015521 75 214 5.0 12.0 0.00 0.00 0.00 31 1007.1
20260505014521 76 180 4.0 12.0 0.00 0.00 0.00 33 1007.0
20260505014022 76 191 5.0 11.0 0.00 0.00 0.00 34 1006.9
20260505013522 76 193 5.0 10.0 0.00 0.00 0.00 34 1006.9
20260505013022 76 153 4.0 10.0 0.00 0.00 0.00 35 1006.9
20260505012523 76 181 4.0 15.0 0.00 0.00 0.00 36 1007.0
20260505012519 76 186 4.0 15.0 0.00 0.00 0.00 36 1006.9
20260505011517 76 186 4.0 11.0 0.00 0.00 0.00 37 1006.9
20260505011017 77 182 4.0 11.0 0.00 0.00 0.00 37 1007.0
20260505010521 77 165 4.0 10.0 0.00 0.00 0.00 38 1007.2
20260505010517 77 163 5.0 11.0 0.00 0.00 0.00 38 1007.1
20260505005518 77 169 4.0 11.0 0.00 0.00 0.00 39 1007.1
20260505005016 77 121 4.0 12.0 0.00 0.00 0.00 39 1007.0
20260505004516 78 178 5.0 12.0 0.00 0.00 0.00 40 1007.1
20260505004015 78 140 5.0 11.0 0.00 0.00 0.00 40 1007.2
20260505003515 78 153 5.0 12.0 0.00 0.00 0.00 41 1007.2
20260505003015 78 191 5.0 12.0 0.00 0.00 0.00 41 1007.2
20260505002516 78 187 4.0 16.0 0.00 0.00 0.00 42 1007.2
20260505002016 78 118 4.0 16.0 0.00 0.00 0.00 42 1007.2
20260505001515 79 142 5.0 12.0 0.00 0.00 0.00 42 1007.1
20260505001015 79 180 5.0 12.0 0.00 0.00 0.00 42 1007.1
20260505000516 79 178 5.0 15.0 0.00 0.00 0.00 43 1007.2
20260505000016 79 193 5.0 15.0 0.00 0.00 0.00 43 1007.2
20260504235518 80 157 6.0 17.0 0.00 0.00 0.00 43 1007.3
20260504235514 79 167 5.0 13.0 0.00 0.00 0.00 43 1007.2
20260504234513 80 146 7.0 20.0 0.00 0.00 0.00 43 1007.4
20260504234017 80 185 7.0 17.0 0.00 0.00 0.00 42 1007.6
20260504234013 80 190 7.0 20.0 0.00 0.00 0.00 43 1007.4
20260504233619 80 196 7.0 17.0 0.00 0.00 0.00 42 1007.6
20260504232511 80 200 6.0 23.0 0.00 0.00 0.00 42 1007.6
20260504232011 80 163 7.0 23.0 0.00 0.00 0.00 42 1007.6
20260504231510 80 147 7.0 18.0 0.00 0.00 0.00 42 1007.6
20260504231009 81 159 7.0 18.0 0.00 0.00 0.00 42 1007.6
20260504230508 81 167 7.0 19.0 0.00 0.00 0.00 42 1007.7
20260504230007 80 129 7.0 19.0 0.00 0.00 0.00 42 1007.7
20260504225507 80 229 6.0 16.0 0.00 0.00 0.00 41 1007.8
20260504225007 81 225 6.0 13.0 0.00 0.00 0.00 41 1007.8
20260504224508 80 170 6.0 13.0 0.00 0.00 0.00 41 1007.9
20260504224008 80 192 6.0 17.0 0.00 0.00 0.00 41 1007.9
20260504223505 80 162 6.0 17.0 0.00 0.00 0.00 42 1007.8
20260504223006 80 122 6.0 15.0 0.00 0.00 0.00 42 1008.0
20260504222505 80 187 6.0 15.0 0.00 0.00 0.00 42 1007.9
20260504222005 80 193 6.0 15.0 0.00 0.00 0.00 42 1008.0
20260504221506 80 134 6.0 22.0 0.00 0.00 0.00 42 1008.1
20260504221005 80 180 6.0 22.0 0.00 0.00 0.00 42 1008.2
20260504220505 80 169 6.0 17.0 0.00 0.00 0.00 42 1008.2
20260504220005 80 190 6.0 15.0 0.00 0.00 0.00 41 1008.3
20260504215504 80 205 6.0 16.0 0.00 0.00 0.00 41 1008.4
20260504215004 80 184 7.0 16.0 0.00 0.00 0.00 41 1008.5
20260504214504 80 166 6.0 16.0 0.00 0.00 0.00 41 1008.4
20260504214007 80 152 6.0 17.0 0.00 0.00 0.00 41 1008.5
20260504214003 80 180 6.0 16.0 0.00 0.00 0.00 41 1008.4
20260504213003 80 178 6.0 17.0 0.00 0.00 0.00 41 1008.7
20260504212508 80 196 5.0 15.0 0.00 0.00 0.00 41 1008.9
20260504212504 80 150 5.0 16.0 0.00 0.00 0.00 41 1008.9
20260504211503 80 190 6.0 15.0 0.00 0.00 0.00 41 1009.0
20260504211003 80 190 6.0 15.0 0.00 0.00 0.00 40 1009.1
20260504210503 80 171 6.0 15.0 0.00 0.00 0.00 41 1009.1
20260504210003 80 163 6.0 15.0 0.00 0.00 0.00 41 1009.4
20260504205507 79 217 6.0 17.0 0.00 0.00 0.00 41 1009.6
20260504205503 80 205 6.0 17.0 0.00 0.00 0.00 41 1009.6
20260504204505 79 200 6.0 19.0 0.00 0.00 0.00 41 1009.8
20260504204501 79 169 6.0 19.0 0.00 0.00 0.00 41 1009.6
20260504203459 80 150 6.0 16.0 0.00 0.00 0.00 41 1010.0
20260504202958 80 199 6.0 16.0 0.00 0.00 0.00 41 1009.9
20260504202459 80 186 5.0 15.0 0.00 0.00 0.00 40 1010.0
20260504201959 81 183 4.0 13.0 0.00 0.00 0.00 40 1010.2
20260504201459 80 185 6.0 14.0 0.00 0.00 0.00 41 1010.3
20260504200959 80 175 6.0 15.0 0.00 0.00 0.00 41 1010.4
20260504200459 80 177 6.0 15.0 0.00 0.00 0.00 40 1010.5
20260504195959 80 143 7.0 15.0 0.00 0.00 0.00 40 1010.7
20260504195503 79 176 7.0 23.0 0.00 0.00 0.00 40 1010.6
20260504195459 79 219 7.0 17.0 0.00 0.00 0.00 40 1010.7
20260504194459 80 144 7.0 23.0 0.00 0.00 0.00 40 1010.8
20260504193957 80 267 7.0 17.0 0.00 0.00 0.00 40 1010.9
20260504193457 79 178 7.0 15.0 0.00 0.00 0.00 40 1010.9
20260504192957 79 165 8.0 19.0 0.00 0.00 0.00 40 1011.0
20260504192457 80 175 7.0 20.0 0.00 0.00 0.00 39 1011.0
20260504191957 80 205 7.0 20.0 0.00 0.00 0.00 39 1011.0
20260504191455 79 246 6.0 20.0 0.00 0.00 0.00 39 1011.2
20260504190955 80 204 7.0 23.0 0.00 0.00 0.00 38 1011.1
20260504190558 78 186 7.0 16.0 0.00 0.00 0.00 38 1011.4
20260504190455 79 180 6.0 23.0 0.00 0.00 0.00 38 1011.3
20260504185957 79 149 6.0 15.0 0.00 0.00 0.00 38 1011.2
20260504185953 78 163 7.0 16.0 0.00 0.00 0.00 39 1011.2
20260504184455 78 149 5.0 18.0 0.00 0.00 0.00 38 1011.6
20260504184451 78 228 6.0 18.0 0.00 0.00 0.00 38 1011.5
20260504183451 78 134 5.0 16.0 0.00 0.00 0.00 38 1011.7
20260504182950 78 167 6.0 16.0 0.00 0.00 0.00 38 1011.6
20260504182451 78 165 5.0 16.0 0.00 0.00 0.00 37 1011.7
20260504181949 77 126 7.0 16.0 0.00 0.00 0.00 37 1011.8
20260504181448 77 157 7.0 23.0 0.00 0.00 0.00 37 1011.9
20260504180952 76 209 6.0 15.0 0.00 0.00 0.00 37 1012.1
20260504180948 77 190 6.0 23.0 0.00 0.00 0.00 37 1011.9
20260504175949 77 155 7.0 17.0 0.00 0.00 0.00 37 1012.2
20260504175449 77 217 7.0 17.0 0.00 0.00 0.00 36 1012.3
20260504174953 76 227 7.0 15.0 0.00 0.00 0.00 36 1012.3
20260504174949 77 155 7.0 15.0 0.00 0.00 0.00 36 1012.3
20260504174555 76 192 7.0 17.0 0.00 0.00 0.00 36 1012.4
20260504173449 76 100 7.0 17.0 0.00 0.00 0.00 35 1012.6
20260504172950 76 207 7.0 19.0 0.00 0.00 0.00 35 1012.6
20260504172448 76 140 6.0 19.0 0.00 0.00 0.00 35 1012.7
20260504171948 76 159 6.0 17.0 0.00 0.00 0.00 34 1012.6
20260504171447 76 223 6.0 17.0 0.00 0.00 0.00 34 1012.7
20260504170951 75 146 5.0 19.0 0.00 0.00 0.00 33 1012.8
20260504170947 75 180 6.0 19.0 0.00 0.00 0.00 33 1012.7
20260504150942 68 173 6.0 20.0 0.00 0.00 0.00 20 1014.1
20260504150938 69 158 7.0 15.0 0.00 0.00 0.00 21 1014.2
20260504140935 64 227 5.0 12.0 0.00 0.00 0.00 3 1014.2
20260504140438 63 198 5.0 13.0 0.00 0.00 0.00 1 1014.2
20260504140434 64 180 5.0 12.0 0.00 0.00 0.00 2 1014.2
20260504110416 59 203 3.0 9.0 0.00 0.00 0.00 1 1013.6